User: anonymous   Login
Location: Newark
(25.3833°N, 97.4000°E)
Time: 22:23:10
(UTC+00:00)
Language:

AO-85 - Orbit

View from above orbital plane
View from above orbital plane
View from above satellite
View from above satellite

Ground track
Ground track

The orbit data is extracted from the following two-line orbital elements,

1 40967U 15058D   20050.33741026  .00000037  00000-0  23478-4 0  9604
2 40967  64.7756 132.4703 0173086 118.9693 242.8889 14.76072342143998
Epoch (UTC): 19 February 2020 08:05:52
Eccentricity: 0.0173086
inclination: 64.7756°
perigee height: 520 km
apogee height: 763 km
right ascension of ascending node: 132.4703°
argument of perigee: 118.9693°
revolutions per day: 14.76072342
mean anomaly at epoch: 242.8889°
orbit number at epoch: 14399

The dashed part of the orbit path shows where the satellite is in the earth's shadow,  

DLR